星链-30799 (STARLINK-30799 )

导读

STARLINK-30799是美国太空探索技术公司(SpaceX)于2023年10月22日发射的星链(Starlink)项目卫星,属于近地轨道卫星星座组网的一员。星链项目旨在通过大规模低轨卫星部署,为全球提供高速宽带互联网接入服务,尤其覆盖偏远、基础设施薄弱地区,STARLINK-30799的发射助力星链全球组网进程持续推进。

基本信息
目录编号:
58121
目录名称:
STARLINK-30799
国际标识:
2023-162D
轨道中心:
EARTH
卫星名称:
星链-30799
卫星全名:
星链-30799 (STARLINK-30799 )
卫星状态:
在轨 (已飞行1055 天)
发射日期:
2023-10-22 UTC
国别 :
美国 (US)
星等 :
--
该卫星已列入 空间交会检测服务 Space Conjunction Data Service (SCDS) ,当前飞行风险评估等级: 无高风险
轨道信息
数据来源 国际轨道数据 AOE轨道数据
星历时间 2026-09-11T11:50:03+0800
15小时前
查看轨道信息
2026-09-10T22:00:00+0800
1天前
查看轨道信息
半长轴 6861.192km 6861.206km
偏心率 0.0001094 0.0001222
轨道倾角 43.001° 43.001°
近地点辐角 276.736° 276.197°
升交点赤经 164.935° 168.190°
平近点角 83.337° 150.174°
近地点 482.304km 482.23km
远地点 483.806km 483.908km
周期 94.267分钟 94.267分钟
每日圈数 15.275782 15.275736
详细信息
固有亮度:
5
最大亮度:
0.3
卫星平台:
Starlink v2.0 mini
覆盖范围:
全球
运营商:
太空探索技术公司
运营商所在国:
美国
制造商(研发单位):
太空探索技术公司
制造商所在国:
美国
使用方式:
暂无
卫星简介
星链(Starlink)计划是由太空探索技术公司(SpaceX)提出的一个巨型低轨卫星互联网星座项目,计划在2019年至2024年间在太空搭建由约1.2万颗卫星组成的“星链”网络,其中1584颗将部署在地球上空550千米处的近地轨道,并从2020年开始工作。该卫星仍在工作。
2D轨道图
3D轨道图
轨道高度分析图
轨道倾角分析图
轨道综合分析图
查看轨道综合分析图
交会数据列表
事件ID 空间交会对象 最接近时刻(TCA) 交会距离 交会风险概率(CRP) 交会风险指数(CRI) 操作
CDM_260912-142605-812106-685721
2026-09-12T
14:26:58+0000
0.131 km
中距离
9.785746E-4 高风险 0.95
CDM_260914-010005-812106-401321
2026-09-14T
01:00:12+0000
0.368 km
远距离
3.028912E-4 高风险 0.85
CDM_260913-184205-812106-656521
2026-09-13T
18:42:17+0000
0.511 km
远距离
1.53701E-4 高风险 0.79
CDM_260913-021305-812106-685721
2026-09-13T
02:13:06+0000
1.307 km
极远距离
8.151613E-6 低风险 0.53
CDM_260914-031705-812106-261621
2026-09-14T
03:17:22+0000
1.500 km
极远距离
6.556143E-6 低风险 0.51
CDM_260914-023405-812106-401321
2026-09-14T
02:34:22+0000
1.566 km
极远距离
4.395155E-6 低风险 0.48
CDM_260913-232605-812106-401321
2026-09-13T
23:26:03+0000
2.042 km
极远距离
2.084286E-6 低风险 0.41
CDM_260913-201605-812106-656521
2026-09-13T
20:16:27+0000
2.364 km
极远距离
1.538036E-6 低风险 0.39
CDM_260913-170805-812106-656521
2026-09-13T
17:08:08+0000
2.423 km
极远距离
1.4681E-6 低风险 0.38
CDM_260913-003805-812106-685721
2026-09-13T
00:38:57+0000
2.739 km
极远距离
1.206012E-6 低风险 0.37
与全量物体交会距离演化趋势
与全量物体交会风险概率演化趋势